1501254000.28,23992,20.06,73736.0,5.77,4.27,4.23,0,*7F
1501254001.51,23993,20.13,73736.0,5.79,4.75,4.75,0,*74
1501254002.67,23994,20.13,73736.5,5.79,3.63,3.59,0,*7A
1501254003.84,23995,20.13,73730.0,5.79,3.59,3.59,0,*72
1501254005.02,23996,20.06,73732.0,5.75,3.25,3.29,0,*71
1501254006.21,23997,20.13,73742.0,5.77,4.15,4.11,0,*7A
1501254007.41,23998,20.06,73734.3,5.77,2.95,2.95,0,*71
1501254008.6,23999,20.06,73736.0,5.75,2.55,2.31,0,*70
1501254009.84,24000,20.13,73740.0,5.73,1.71,1.63,0,*79
1501254011.03,24001,20.13,73736.5,5.71,2.61,2.55,0,*7E
1501254012.28,24002,20.13,73736.0,5.69,3.11,3.15,0,*77
1501254013.49,24003,20.13,73744.8,5.67,2.61,2.51,0,*7F
1501254014.69,24004,20.13,73732.3,5.67,2.65,2.59,0,*74
1501254015.89,24005,20.13,73732.3,5.63,3.29,3.37,0,*71
1501254017.06,24006,20.13,73732.3,5.63,4.15,4.23,0,*78
1501254018.23,24007,20.13,73734.8,5.63,4.49,4.49,0,*7C
1501254019.45,24008,20.13,73746.0,5.63,4.59,4.59,0,*73
1501254020.65,24009,20.06,73740.3,5.63,4.79,4.89,0,*7D
1501254021.83,24010,20.13,73744.3,5.67,5.11,5.19,0,*76
1501254023.03,24011,20.13,73736.3,5.67,4.27,4.31,0,*78
1501254024.23,24012,20.13,73734.0,5.67,4.79,4.85,0,*7F
1501254025.48,24013,20.13,73756.8,5.69,4.97,5.05,0,*79
1501254026.67,24014,20.13,73748.0,5.67,4.15,4.01,0,*7F
1501254027.89,24015,20.13,73738.5,5.67,3.11,3.19,0,*73
1501254029.12,24016,20.13,73734.8,5.67,3.45,3.41,0,*7C
1501254030.3,24017,20.13,73738.5,5.67,3.89,3.93,0,*72
1501254031.53,24018,20.13,73734.5,5.67,3.71,3.67,0,*71
1501254032.69,24019,20.13,73736.5,5.67,4.49,4.53,0,*7C
1501254033.9,24020,20.06,73738.8,5.67,4.81,4.93,0,*7E
1501254035.13,24021,20.13,73744.0,5.67,4.97,5.01,0,*72
1501254036.33,24022,20.13,73746.5,5.67,4.85,4.93,0,*78
1501254037.56,24023,20.13,73748.0,5.67,4.59,4.63,0,*77
1501254038.73,24024,20.06,73736.8,5.67,4.41,4.45,0,*7D
1501254039.94,24025,20.13,73740.3,5.67,5.01,5.07,0,*7E
1501254041.17,24026,20.13,73730.5,5.67,4.97,5.01,0,*75
1501254042.37,24027,20.13,73728.0,5.73,5.07,5.07,0,*7F
1501254043.56,24028,20.06,73726.8,5.71,5.27,5.37,0,*73
1501254044.74,24029,20.13,73740.3,5.71,5.27,5.33,0,*76
1501254045.97,24030,20.13,73742.3,5.71,4.75,4.79,0,*77
1501254047.14,24031,20.13,73732.0,5.71,4.23,4.23,0,*7A
1501254048.3,24032,20.13,73732.5,5.71,4.45,4.45,0,*79
1501254049.5,24033,20.13,73736.3,5.71,5.01,5.15,0,*7D
1501254050.72,24034,20.13,73730.5,5.71,4.79,4.79,0,*7F
1501254051.96,24035,20.13,73732.0,5.71,4.71,4.75,0,*7A
1501254053.12,24036,20.13,73742.0,5.71,4.15,4.19,0,*71
1501254054.29,24037,20.13,73748.0,5.71,4.23,4.23,0,*7C
1501254055.46,24038,20.13,73742.0,5.71,4.15,4.19,0,*7F
1501254056.63,24039,20.13,73750.3,5.71,4.19,4.23,0,*7B
1501254057.84,24040,20.06,73744.8,5.71,3.49,3.49,0,*7C
1501254059.07,24041,20.13,73750.5,5.71,3.11,3.15,0,*79
1501254060.25,24042,20.13,73742.0,5.67,3.89,3.93,0,*72
1501254061.44,24043,20.13,73746.8,5.69,3.93,3.85,0,*71
1501254062.67,24044,20.13,73744.0,5.67,3.23,3.23,0,*7F
1501254063.86,24045,20.13,73740.0,5.63,2.95,3.03,0,*74
1501254065.09,24046,20.13,73738.0,5.63,3.41,3.45,0,*7D
1501254066.34,24047,20.13,73742.5,5.61,3.45,3.45,0,*7A
1501254067.57,24048,20.13,73732.5,5.61,3.29,3.37,0,*7A
1501254068.76,24049,20.13,73730.0,5.61,4.07,4.11,0,*73
1501254069.96,24050,20.13,73730.8,5.61,4.89,4.89,0,*7C
1501254071.15,24051,20.13,73744.0,5.61,5.37,5.41,0,*7C
1501254072.32,24052,20.13,73744.0,5.63,4.37,4.49,0,*75
1501254073.52,24053,20.13,73734.8,5.61,4.07,4.15,0,*7C
1501254074.74,24054,20.13,73732.3,5.63,3.97,3.97,0,*7A
1501254075.96,24055,20.13,73728.0,5.61,4.71,4.81,0,*76
1501254077.16,24056,20.13,73732.0,5.61,5.07,5.07,0,*7A
1501254078.35,24057,20.13,73734.5,5.63,5.19,5.19,0,*79
1501254079.57,24058,20.13,73732.0,5.63,4.67,4.79,0,*79
1501254080.75,24059,20.13,73742.0,5.67,5.11,5.23,0,*72
1501254081.93,24060,20.13,73746.0,5.67,5.63,5.63,0,*79
1501254083.16,24061,20.13,73750.0,5.67,5.01,4.97,0,*76
1501254084.34,24062,20.13,73746.3,5.67,4.37,4.37,0,*7B
1501254085.53,24063,20.13,73736.3,5.69,3.59,3.63,0,*7D
1501254086.72,24064,20.13,73734.0,5.63,3.97,3.85,0,*7A
1501254087.92,24065,20.13,73744.3,5.67,4.81,4.93,0,*7F
1501254089.1,24066,20.13,73746.8,5.67,5.19,5.29,0,*7C
1501254090.27,24067,20.13,73732.3,5.67,4.85,4.85,0,*7E
1501254091.47,24068,20.13,73732.5,5.67,4.75,4.85,0,*7E
1501254092.63,24069,20.13,73734.3,5.67,5.29,5.41,0,*7E
1501254093.84,24070,20.13,73742.5,5.69,5.27,5.37,0,*77
1501254095.07,24071,20.13,73754.5,5.69,5.23,5.27,0,*73
1501254096.26,24072,20.13,73750.0,5.69,4.41,4.41,0,*74
1501254097.46,24073,20.13,73746.3,5.69,4.57,4.57,0,*75
1501254098.66,24074,20.13,73738.8,5.69,4.41,4.53,0,*71
1501254099.86,24075,20.13,73742.3,5.69,5.11,5.15,0,*77
1501254101.07,24076,20.13,73740.8,5.69,5.27,5.45,0,*74
1501254102.28,24077,20.13,73738.5,5.69,5.27,5.45,0,*75
1501254103.45,24078,20.13,73740.8,5.71,5.11,5.15,0,*73
1501254104.62,24079,20.13,73744.5,5.71,5.33,5.45,0,*77
1501254105.81,24080,20.13,73744.0,5.71,5.59,5.73,0,*78
1501254107.03,24081,20.13,73750.0,5.73,5.19,5.27,0,*7E
1501254108.25,24082,20.13,73746.0,5.71,4.97,5.05,0,*78
1501254109.45,24083,20.13,73746.3,5.73,5.07,5.15,0,*72
1501254110.66,24084,20.13,73754.3,5.73,5.27,5.29,0,*78
1501254111.88,24085,20.13,73750.5,5.73,4.81,4.93,0,*74
1501254113.1,24086,20.13,73744.5,5.73,5.27,5.41,0,*74
1501254114.27,24087,20.13,73746.8,5.75,5.59,5.63,0,*7A
1501254115.44,24088,20.13,73758.3,5.75,5.37,5.49,0,*75
1501254116.63,24089,20.13,73756.8,5.77,5.07,5.15,0,*7C
1501254117.81,24090,20.13,73754.0,5.75,5.07,5.19,0,*7A
1501254119.03,24091,20.13,73748.8,5.77,4.85,4.97,0,*75
1501254120.23,24092,20.13,73752.0,5.77,5.11,5.33,0,*75
1501254121.43,24093,20.13,73746.3,5.75,5.63,5.77,0,*73
1501254122.64,24094,20.13,73752.3,5.77,5.51,5.63,0,*72
1501254123.86,24095,20.13,73754.0,5.77,5.55,5.67,0,*73
1501254125.08,24096,20.13,73756.8,5.77,5.67,5.81,0,*79
1501254126.26,24097,20.13,73752.3,5.79,5.15,5.23,0,*7B
1501254127.45,24098,20.13,73748.3,5.81,4.41,4.45,0,*72
1501254128.63,24099,20.13,73746.0,5.79,4.41,4.45,0,*74
1501254129.8,24100,20.13,73748.8,5.79,4.45,4.53,0,*76
1501254131.0,24101,20.13,73746.0,5.77,3.89,3.93,0,*75
1501254132.25,24102,20.13,73750.3,5.77,3.11,3.19,0,*75
1501254133.44,24103,20.13,73748.8,5.75,3.53,3.63,0,*7D
1501254134.64,24104,20.13,73748.8,5.75,3.89,3.97,0,*76
1501254135.83,24105,20.13,73740.8,5.73,4.11,4.19,0,*76
1501254137.03,24106,20.13,73740.8,5.71,4.05,4.15,0,*7E
1501254138.25,24107,20.13,73740.0,5.73,4.67,4.89,0,*7C
1501254139.44,24108,20.13,73738.0,5.73,5.19,5.41,0,*7E
1501254140.65,24109,20.13,73742.5,5.73,5.27,5.49,0,*7A
1501254141.85,24110,20.13,73742.3,5.73,5.37,5.63,0,*7B
1501254143.06,24111,20.13,73742.8,5.73,5.27,5.41,0,*7B
1501254144.29,24112,20.13,73738.8,5.75,4.93,5.05,0,*70
1501254145.48,24113,20.13,73742.3,5.73,5.19,5.41,0,*74
1501254146.7,24114,20.13,73738.3,5.77,5.37,5.51,0,*7A
1501254147.93,24115,20.13,73742.3,5.77,5.05,5.07,0,*79
1501254149.16,24116,20.13,73744.3,5.75,4.79,5.05,0,*70
1501254150.38,24117,20.13,73744.5,5.77,5.05,5.11,0,*7C
1501254151.59,24118,20.13,73744.3,5.75,4.89,5.05,0,*71
1501254152.79,24119,20.13,73744.0,5.77,5.07,5.23,0,*71
1501254154.01,24120,20.13,73744.3,5.77,4.75,4.85,0,*72
1501254155.23,24121,20.13,73744.5,5.77,4.81,4.97,0,*7B
1501254156.46,24122,20.13,73736.0,5.77,4.71,4.81,0,*70
1501254157.63,24123,20.13,73736.3,5.75,5.07,5.29,0,*70
1501254158.82,24124,20.13,73740.3,5.77,5.23,5.45,0,*79
1501254160.05,24125,20.13,73736.0,5.77,4.97,5.11,0,*77
1501254161.27,24126,20.13,73728.8,5.77,4.59,4.85,0,*7A
1501254162.5,24127,20.13,73746.0,5.75,5.05,5.27,0,*78
1501254163.68,24128,20.13,73744.8,5.79,4.89,5.07,0,*7C
1501254164.9,24129,20.13,73734.8,5.79,4.67,4.97,0,*75
1501254166.08,24130,20.13,73732.8,5.79,5.23,5.45,0,*72
1501254167.29,24131,20.13,73726.0,5.79,5.27,5.55,0,*76
1501254168.46,24132,20.13,73732.8,5.79,5.37,5.71,0,*72
1501254169.63,24133,20.13,73734.5,5.79,5.49,5.71,0,*7A
1501254170.83,24134,20.13,73734.5,5.81,5.07,5.23,0,*77
1501254172.0,24135,20.13,73738.5,5.79,5.23,5.49,0,*7B
1501254173.18,24136,20.13,73748.5,5.79,5.23,5.37,0,*71
1501254174.37,24137,20.13,73748.5,5.81,5.49,5.71,0,*79
1501254175.62,24138,20.13,73750.5,5.81,3.71,3.75,0,*79
1501254176.79,24139,20.13,73740.5,5.79,3.85,4.07,0,*76
1501254177.98,24140,20.13,73742.0,5.79,3.97,4.27,0,*79
1501254179.19,24141,20.13,73738.3,5.79,4.57,4.75,0,*74
1501254180.41,24142,20.13,73738.5,5.77,4.81,5.05,0,*74
1501254181.58,24143,20.13,73742.8,5.79,5.23,5.49,0,*7A
1501254182.78,24144,20.13,73742.0,5.79,4.75,5.07,0,*75
1501254183.96,24145,20.13,73740.5,5.79,4.41,4.57,0,*77
1501254185.19,24146,20.13,73740.8,5.77,4.37,4.71,0,*7F
1501254186.44,24147,20.13,73742.3,5.77,4.59,4.97,0,*7E
1501254187.67,24148,20.13,73734.0,5.77,5.05,5.33,0,*76
1501254188.84,24149,20.13,73740.8,5.79,5.11,5.45,0,*7D
1501254190.03,24150,20.13,73744.8,5.79,5.37,5.77,0,*70
1501254191.2,24151,20.13,73736.5,5.83,5.29,5.59,0,*77
1501254192.37,24152,20.13,73734.3,5.79,4.53,4.85,0,*7D
1501254193.6,24153,20.13,73730.8,5.81,4.75,5.07,0,*74
1501254194.8,24154,20.13,73740.0,5.79,4.79,5.11,0,*7F
1501254196.03,24155,20.13,73740.3,5.81,4.97,5.15,0,*7D
1501254197.23,24156,20.13,73732.0,5.81,4.85,5.15,0,*7D
1501254198.45,24157,20.13,73748.0,5.81,4.57,4.97,0,*78
1501254199.66,24158,20.13,73748.3,5.79,4.57,5.01,0,*7E
1501254200.89,24159,20.13,73736.5,5.81,4.97,5.23,0,*74
1501254202.06,24160,20.13,73730.8,5.79,4.85,5.15,0,*7F
1501254203.29,24161,20.13,73736.5,5.79,4.97,5.27,0,*7C
1501254204.53,24162,20.13,73740.8,5.81,4.97,5.27,0,*78
1501254205.75,24163,20.13,73742.3,5.81,5.37,5.77,0,*77
1501254206.94,24164,20.13,73738.0,5.81,5.37,5.71,0,*76
1501254208.15,24165,20.13,73738.8,5.83,4.67,5.11,0,*77
1501254209.36,24166,20.13,73736.5,5.81,5.07,5.55,0,*71
1501254210.59,24167,20.13,73738.3,5.81,5.11,5.55,0,*77
1501254211.79,24168,20.13,73740.8,5.83,4.89,5.27,0,*7F
1501254212.98,24169,20.13,73742.3,5.83,5.37,5.73,0,*7B
1501254214.15,24170,20.13,73740.0,5.83,5.15,5.49,0,*7A
1501254215.34,24171,20.13,73736.8,5.85,5.11,5.49,0,*79
1501254216.57,24172,20.13,73738.5,5.85,4.45,5.01,0,*76
1501254217.8,24173,20.13,73740.0,5.85,4.71,5.15,0,*75
1501254219.02,24174,20.13,73730.8,5.85,4.23,4.67,0,*71
1501254220.23,24175,20.13,73740.0,5.83,4.11,4.59,0,*7A
1501254221.43,24176,20.13,73732.0,5.83,4.49,5.01,0,*78
1501254222.66,24177,20.13,73734.0,5.85,4.71,5.11,0,*75
1501254223.88,24178,20.13,73748.0,5.85,4.93,5.37,0,*72
1501254225.08,24179,20.13,73752.3,5.83,4.79,5.29,0,*7E
1501254226.27,24180,20.13,73754.5,5.83,5.15,5.73,0,*7C
1501254227.5,24181,20.19,73748.3,5.85,4.79,5.19,0,*7C
1501254228.72,24182,20.13,73742.5,5.85,5.05,5.63,0,*78
1501254229.93,24183,20.13,73744.5,5.85,5.15,5.73,0,*79
1501254231.17,24184,20.13,73750.8,5.89,4.71,5.29,0,*7E
1501254232.41,24185,20.13,73744.3,5.89,4.11,4.63,0,*76
1501254233.64,24186,20.13,73742.8,5.89,3.79,4.41,0,*7C
1501254234.85,24187,20.13,73746.8,5.83,3.07,3.63,0,*79
1501254236.03,24188,20.19,73746.0,5.83,3.25,3.89,0,*72
1501254237.23,24189,20.13,73732.0,5.83,3.59,4.31,0,*7C
1501254238.45,24190,20.13,73734.3,5.85,3.75,4.45,0,*7F
1501254239.64,24191,20.13,73730.8,5.83,4.37,5.11,0,*79
1501254240.84,24192,20.13,73720.0,5.83,4.57,5.27,0,*79
1501254242.01,24193,20.19,73728.5,5.83,4.19,4.89,0,*77
1501254243.19,24194,20.13,73734.5,5.83,4.23,4.89,0,*79
1501254244.39,24195,20.13,73732.0,5.83,4.57,5.27,0,*7E
1501254245.58,24196,20.13,73736.5,5.81,4.57,5.15,0,*7E
1501254246.81,24197,20.13,73732.0,5.81,4.67,5.33,0,*78
1501254248.03,24198,20.13,73732.0,5.83,4.79,5.51,0,*7E
1501254249.23,24199,20.13,73730.5,5.83,4.79,5.49,0,*76
1501254250.48,24200,20.13,73746.5,5.85,4.59,5.27,0,*79
1501254251.67,24201,20.13,73748.0,5.85,4.57,5.29,0,*78
1501254252.9,24202,20.13,73744.0,5.85,4.11,5.01,0,*73
1501254254.08,24203,20.13,73742.3,5.83,3.29,4.89,0,*79
1501254255.3,24204,20.13,73740.8,5.85,3.41,5.29,0,*7D
1501254256.53,24205,20.13,73746.0,5.85,3.15,5.11,0,*76
1501254257.76,24206,20.13,73746.8,5.85,3.29,5.27,0,*7F
1501254258.98,24207,20.13,73752.0,5.85,2.47,4.57,0,*71
1501254260.24,24208,20.13,73756.8,5.89,2.85,4.97,0,*70
1501254261.49,24209,20.13,73752.3,5.85,1.21,3.19,0,*71
1501254262.68,24210,20.13,73746.0,5.85,1.75,3.85,0,*7D
1501254263.88,24211,20.13,73738.5,5.83,1.97,4.11,0,*7C
1501254265.11,24212,20.13,73732.3,5.83,1.47,3.75,0,*77
1501254266.35,24213,20.13,73732.0,5.83,1.13,3.41,0,*70
1501254267.59,24214,20.13,73742.0,5.81,0.87,3.23,0,*4D
1501254268.78,24215,20.13,73738.5,5.79,0.33,2.61,0,*43
1501254269.97,24216,20.13,73734.8,5.79,-0.77,1.47,0,*6A
1501254271.21,24217,20.13,73732.8,5.77,-0.93,1.43,0,*6B
1501254272.43,24218,20.13,73734.5,5.75,-1.09,1.37,0,*57
1501254273.66,24219,20.13,73736.0,5.71,-1.01,1.33,0,*5E
1501254274.86,24220,20.19,73736.5,5.67,-0.77,1.63,0,*66
1501254276.06,24221,20.13,73730.8,5.67,-0.19,2.17,0,*6F
1501254277.27,24222,20.13,73736.0,5.67,0.29,2.77,0,*44
1501254278.46,24223,20.13,73740.0,5.63,0.41,2.91,0,*47
1501254279.67,24224,20.13,73740.0,5.61,0.25,2.91,0,*40
1501254280.91,24225,20.13,73736.8,5.61,0.67,3.41,0,*4B
1501254282.14,24226,20.13,73736.0,5.61,1.13,3.85,0,*72
1501254283.36,24227,20.13,73736.3,5.61,0.91,3.63,0,*40
1501254284.59,24228,20.13,73732.8,5.61,1.25,3.89,0,*75
1501254285.78,24229,20.13,73736.0,5.63,1.25,4.11,0,*70
1501254286.98,24230,20.13,73738.0,5.63,1.75,4.59,0,*71
1501254288.21,24231,20.13,73736.8,5.67,1.67,4.63,0,*7E
1501254289.41,24232,20.19,73736.3,5.63,1.59,4.37,0,*75
1501254290.61,24233,20.13,73732.5,5.63,1.75,4.71,0,*78
1501254291.84,24234,20.19,73734.3,5.67,2.05,4.97,0,*77
1501254293.09,24235,20.13,73730.8,5.69,1.93,4.97,0,*74
1501254294.34,24236,20.19,73732.3,5.69,2.05,5.01,0,*75
1501254295.59,24237,20.13,73726.0,5.69,2.09,5.05,0,*7C
1501254296.85,24238,20.13,73724.5,5.73,2.01,4.93,0,*7E
1501254298.06,24239,20.13,73728.0,5.73,2.09,4.81,0,*74
1501254299.29,24240,20.13,73736.3,5.73,1.75,4.59,0,*77
1501254300.51,24241,20.13,73742.3,5.73,1.71,4.45,0,*7F
1501254301.72,24242,20.13,73736.8,5.73,0.63,3.29,0,*43
1501254302.93,24243,20.13,73738.8,5.71,1.21,3.93,0,*76
1501254304.16,24244,20.13,73742.0,5.73,1.85,4.57,0,*72
1501254305.39,24245,20.19,73744.5,5.73,1.85,4.57,0,*73
1501254306.61,24246,20.13,73742.3,5.73,1.97,4.81,0,*78
1501254307.83,24247,20.19,73750.8,5.73,2.09,4.89,0,*75
1501254309.03,24248,20.13,73750.3,5.75,1.59,4.37,0,*7F
1501254310.23,24249,20.13,73748.0,5.75,1.37,4.27,0,*77
1501254311.48,24250,20.13,73750.8,5.73,0.91,3.79,0,*48
1501254312.71,24251,20.13,73746.3,5.73,0.67,3.67,0,*4F
1501254313.92,24252,20.19,73752.0,5.73,0.75,3.85,0,*43
1501254315.17,24253,20.19,73742.3,5.73,1.13,4.31,0,*7B
1501254316.39,24254,20.19,73748.5,5.73,1.41,4.59,0,*75
1501254317.65,24255,20.13,73748.5,5.73,1.51,4.71,0,*7F
1501254318.82,24256,20.13,73744.8,5.75,0.97,4.49,0,*4A
1501254320.0,24257,20.19,73748.8,5.73,0.43,3.85,0,*43
1501254321.2,24258,20.13,73744.8,5.73,0.43,3.67,0,*40
1501254322.44,24259,20.13,73740.8,5.73,0.29,3.41,0,*49
1501254323.64,24260,20.19,73746.0,5.71,-0.49,2.55,0,*6E
1501254324.85,24261,20.19,73744.5,5.73,0.17,3.29,0,*41
1501254326.02,24262,20.13,73738.5,5.71,-0.11,2.91,0,*69
1501254327.19,24263,20.13,73740.0,5.71,-0.37,2.65,0,*67
1501254328.39,24264,20.13,73740.8,5.67,-0.69,2.39,0,*65
1501254329.59,24265,20.13,73736.3,5.63,-0.41,2.73,0,*64
1501254330.81,24266,20.19,73730.5,5.67,0.17,3.33,0,*48
1501254332.03,24267,20.19,73728.5,5.63,0.87,4.01,0,*42
1501254333.23,24268,20.13,73736.5,5.63,1.25,4.37,0,*71
1501254334.43,24269,20.13,73748.5,5.63,0.91,4.07,0,*4D
1501254335.64,24270,20.13,73746.3,5.63,-0.19,3.03,0,*6B
1501254336.86,24271,20.13,73740.0,5.63,-0.23,3.03,0,*63
1501254338.09,24272,20.19,73740.5,5.61,0.29,3.53,0,*40
1501254339.33,24273,20.13,73736.0,5.61,0.63,4.01,0,*4F
1501254340.53,24274,20.13,73730.5,5.61,0.97,4.37,0,*46
1501254341.72,24275,20.19,73732.5,5.61,1.41,4.89,0,*78
1501254342.93,24276,20.19,73730.3,5.63,1.85,5.07,0,*76
1501254344.16,24277,20.19,73730.8,5.63,2.01,4.97,0,*70
1501254345.39,24278,20.13,73736.3,5.67,2.05,5.01,0,*71
1501254346.59,24279,20.13,73740.8,5.67,2.25,5.11,0,*73
1501254347.85,24280,20.19,73740.5,5.69,2.09,5.01,0,*74
1501254349.06,24281,20.13,73734.3,5.71,2.17,5.11,0,*72
1501254350.25,24282,20.13,73734.5,5.71,2.09,4.89,0,*7E
1501254351.45,24283,20.13,73730.3,5.71,2.27,4.97,0,*7C
1501254352.64,24284,20.13,73728.3,5.71,2.69,5.15,0,*7A
1501254353.9,24285,20.13,73732.5,5.73,2.43,5.01,0,*74
1501254355.12,24286,20.13,73730.3,5.73,2.69,5.29,0,*75
1501254356.36,24287,20.13,73734.8,5.73,1.93,4.59,0,*74
1501254357.57,24288,20.13,73734.8,5.75,1.75,4.71,0,*7F
1501254358.77,24289,20.13,73736.8,5.75,1.71,4.81,0,*75
1501254359.97,24290,20.13,73752.5,5.75,1.25,4.33,0,*75
1501254361.19,24291,20.13,73758.3,5.75,0.79,3.97,0,*45
1501254362.4,24292,20.19,73758.0,5.75,0.37,3.53,0,*44
1501254363.66,24293,20.13,73752.8,5.73,-1.05,2.13,0,*5B
1501254364.86,24294,20.13,73744.3,5.71,-1.39,1.79,0,*5E
1501254366.05,24295,20.19,73738.8,5.69,-0.03,2.91,0,*5B
1501254367.27,24296,20.19,73740.0,5.67,0.29,3.33,0,*4A
1501254368.5,24297,20.19,73742.5,5.69,1.17,4.07,0,*79
1501254369.72,24298,20.19,73744.8,5.69,-0.37,2.43,0,*6E
1501254370.92,24299,20.13,73734.0,5.67,-1.91,1.01,0,*59
1501254372.17,24300,20.19,73736.3,5.61,-1.43,1.59,0,*5C
1501254373.39,24301,20.13,73726.5,5.57,-1.75,1.25,0,*56
1501254374.64,24302,20.19,73704.8,5.57,-1.47,1.71,0,*55
1501254375.87,24303,20.19,73712.5,5.51,-0.81,2.59,0,*60
1501254377.1,24304,20.19,73724.0,5.51,-0.45,2.81,0,*6A
1501254378.32,24305,20.13,73734.5,5.53,0.17,3.45,0,*4A
1501254379.56,24306,20.19,73736.0,5.51,0.41,3.71,0,*4F
1501254380.76,24307,20.13,73728.3,5.51,0.01,3.19,0,*74
1501254382.01,24308,20.19,73738.3,5.51,0.29,3.45,0,*48
1501254383.25,24309,20.13,73742.8,5.51,0.79,4.01,0,*4B
1501254384.51,24310,20.19,73740.8,5.51,0.91,4.05,0,*41
1501254385.7,24311,20.19,73744.0,5.53,1.25,4.27,0,*7C
1501254386.91,24312,20.19,73744.5,5.53,1.33,4.15,0,*79
1501254388.1,24313,20.13,73732.5,5.53,1.17,4.27,0,*7F
1501254389.29,24314,20.19,73748.5,5.53,1.67,4.81,0,*73
1501254390.5,24315,20.19,73748.5,5.53,1.29,4.37,0,*75
1501254391.73,24316,20.19,73746.8,5.57,-0.53,2.69,0,*6E
1501254392.93,24317,20.19,73738.5,5.53,-0.19,3.07,0,*6C
1501254394.11,24318,20.19,73744.0,5.53,-0.07,3.19,0,*53
1501254395.31,24319,20.19,73744.3,5.53,-0.29,2.89,0,*66
1501254396.53,24320,20.19,73740.3,5.51,-0.85,2.35,0,*6F
1501254397.78,24321,20.19,73732.0,5.51,-0.23,3.15,0,*61
1501254399.03,24322,20.19,73740.0,5.51,0.55,3.75,0,*48
1501254400.28,24323,20.19,73746.5,5.51,0.33,3.41,0,*4E
1501254401.49,24324,20.19,73742.3,5.49,0.47,3.37,0,*42
1501254402.75,24325,20.19,73736.3,5.51,1.37,4.05,0,*7A
1501254403.96,24326,20.13,73712.5,5.49,1.33,3.93,0,*7C
1501254405.16,24327,20.19,73716.5,5.49,1.83,4.31,0,*79
1501254406.39,24328,20.19,73726.0,5.53,2.17,4.59,0,*7D
1501254407.59,24329,20.13,73732.8,5.53,2.13,4.37,0,*70
1501254408.81,24330,20.19,73742.0,5.51,1.97,4.19,0,*79
1501254410.04,24331,20.19,73738.5,5.57,2.17,4.53,0,*7B
1501254411.24,24332,20.19,73738.3,5.53,1.83,4.31,0,*76
1501254412.44,24333,20.19,73738.8,5.53,2.35,4.71,0,*7D
1501254413.64,24334,20.19,73742.8,5.53,2.47,4.89,0,*78
1501254414.84,24335,20.19,73740.8,5.57,2.65,5.33,0,*7D
1501254416.07,24336,20.19,73744.0,5.57,2.05,4.85,0,*74
1501254417.3,24337,20.19,73746.0,5.59,2.09,5.01,0,*7A
1501254418.53,24338,20.13,73744.8,5.59,1.09,3.97,0,*7F
1501254419.78,24339,20.19,73756.8,5.61,0.55,3.45,0,*42
1501254421.01,24340,20.19,73746.5,5.61,0.13,3.07,0,*48
1501254422.21,24341,20.19,73754.3,5.59,-0.49,2.55,0,*66
1501254423.44,24342,20.19,73756.3,5.57,-1.13,1.79,0,*58
1501254424.67,24343,20.19,73748.3,5.57,-0.73,2.17,0,*65
1501254425.89,24344,20.19,73738.5,5.51,0.05,3.03,0,*7C
1501254427.12,24345,20.13,73736.8,5.51,1.37,4.27,0,*7C
1501254428.35,24346,20.19,73740.5,5.51,1.89,4.81,0,*76
1501254429.54,24347,20.19,73744.0,5.53,2.01,4.89,0,*7E
1501254430.8,24348,20.19,73734.5,5.57,1.13,4.05,0,*71
1501254431.97,24349,20.19,73732.0,5.59,0.97,3.85,0,*4C
1501254433.17,24350,20.19,73732.0,5.59,1.59,4.45,0,*7C
1501254434.37,24351,20.19,73740.8,5.59,1.67,4.53,0,*77
1501254435.57,24352,20.19,73742.3,5.59,2.05,4.89,0,*74
1501254436.77,24353,20.19,73746.8,5.59,2.09,4.89,0,*79
1501254438.02,24354,20.19,73746.5,5.61,1.97,4.79,0,*7E
1501254439.25,24355,20.19,73750.0,5.61,1.37,4.23,0,*7A
1501254440.46,24356,20.19,73754.3,5.61,0.41,3.25,0,*48
1501254441.69,24357,20.19,73746.8,5.59,-0.27,2.43,0,*6E
1501254442.92,24358,20.19,73736.8,5.57,-0.65,2.09,0,*67
1501254444.17,24359,20.19,73744.8,5.57,1.09,4.05,0,*7A
1501254445.43,24360,20.19,73748.3,5.57,1.55,4.31,0,*7E
1501254446.68,24361,20.19,73746.3,5.57,0.87,3.71,0,*42
1501254447.91,24362,20.19,73744.8,5.57,1.21,4.07,0,*7A
1501254449.16,24363,20.19,73748.3,5.57,0.83,3.71,0,*44
1501254450.36,24364,20.19,73748.8,5.57,0.97,3.81,0,*49
1501254451.59,24365,20.19,73742.3,5.57,1.09,3.85,0,*7A
1501254452.79,24366,20.19,73736.0,5.57,0.97,3.81,0,*4B
1501254454.01,24367,20.19,73736.0,5.53,0.91,3.79,0,*4F
1501254455.24,24368,20.19,73738.3,5.53,1.29,4.05,0,*7E
1501254456.47,24369,20.19,73738.3,5.53,1.21,4.01,0,*73
1501254457.71,24370,20.19,73740.3,5.51,0.67,3.41,0,*49
1501254458.93,24371,20.19,73740.8,5.51,0.97,3.79,0,*4C
1501254460.16,24372,20.19,73734.5,5.51,1.05,3.67,0,*7A
1501254461.38,24373,20.19,73732.0,5.51,1.51,4.23,0,*7D
1501254462.64,24374,20.19,73738.0,5.57,2.43,5.05,0,*79
1501254463.87,24375,20.19,73752.5,5.53,2.43,5.05,0,*7C
1501254465.1,24376,20.19,73752.5,5.53,2.17,4.75,0,*78
1501254466.31,24377,20.19,73752.8,5.53,0.37,2.73,0,*49
1501254467.54,24378,20.19,73752.5,5.51,1.79,4.05,0,*78
1501254468.76,24379,20.19,73748.3,5.53,2.73,4.75,0,*75
1501254469.95,24380,20.19,73750.8,5.53,2.77,4.81,0,*7C
1501254471.17,24381,20.19,73752.8,5.53,2.89,4.97,0,*7B
1501254472.41,24382,20.19,73752.3,5.57,2.65,4.75,0,*72
1501254473.64,24383,20.19,73758.0,5.57,1.33,3.59,0,*7A
1501254474.89,24384,20.19,73762.5,5.57,1.21,3.53,0,*74
1501254476.09,24385,20.19,73756.3,5.53,1.01,3.45,0,*74
1501254477.3,24386,20.19,73748.8,5.53,0.67,3.07,0,*40
1501254478.57,24387,20.19,73748.5,5.51,1.17,3.41,0,*77
1501254479.79,24388,20.19,73754.3,5.53,1.21,3.37,0,*7E
1501254481.02,24389,20.19,73744.5,5.51,1.41,3.53,0,*79
1501254482.27,24390,20.19,73736.0,5.51,1.47,3.41,0,*74
1501254483.51,24391,20.19,73740.5,5.49,1.21,3.15,0,*7D
1501254484.68,24392,20.19,73750.8,5.45,0.97,2.91,0,*43
1501254485.89,24393,20.19,73746.5,5.45,0.71,2.69,0,*4D
1501254487.12,24394,20.19,73742.0,5.43,0.55,2.61,0,*42
1501254488.38,24395,20.19,73736.5,5.43,1.21,3.49,0,*7A
1501254489.61,24396,20.19,73736.5,5.41,0.91,3.23,0,*4D
1501254490.84,24397,20.19,73746.0,5.43,1.05,3.33,0,*73
1501254492.06,24398,20.19,73746.0,5.41,0.95,3.41,0,*43
1501254493.24,24399,20.19,73740.5,5.41,1.41,3.89,0,*7E
1501254494.46,24400,20.19,73738.8,5.41,1.59,4.05,0,*73
1501254495.68,24401,20.19,73738.8,5.41,1.29,3.89,0,*76
1501254496.9,24402,20.19,73736.5,5.43,1.51,4.19,0,*76
1501254498.12,24403,20.19,73734.3,5.41,1.47,4.05,0,*7F
1501254499.37,24404,20.19,73744.3,5.43,1.67,4.31,0,*7F
1501254500.63,24405,20.19,73752.5,5.43,2.13,4.79,0,*72
1501254501.83,24406,20.19,73756.8,5.43,1.05,3.59,0,*70
1501254503.04,24407,20.19,73754.0,5.41,0.17,2.69,0,*43
1501254504.23,24408,20.19,73742.8,5.41,0.09,2.59,0,*70
1501254505.44,24409,20.19,73746.5,5.41,0.63,3.19,0,*48
1501254506.68,24410,20.19,73752.3,5.41,1.17,3.45,0,*7B
1501254507.89,24411,20.19,73742.3,5.41,1.37,3.89,0,*78
1501254509.09,24412,20.19,73728.5,5.41,1.85,4.27,0,*71
1501254510.31,24413,20.19,73750.0,5.41,2.47,4.59,0,*74
1501254511.52,24414,20.19,73754.3,5.41,2.91,4.71,0,*72
1501254512.73,24415,20.19,73752.5,5.41,3.45,5.07,0,*7B
1501254513.96,24416,20.19,73750.5,5.41,3.75,5.05,0,*79
1501254515.17,24417,20.19,73748.3,5.41,3.93,5.05,0,*70
1501254516.4,24418,20.19,73744.8,5.41,4.05,5.05,0,*77
1501254517.63,24419,20.19,73744.8,5.43,4.59,5.33,0,*78
1501254518.84,24420,20.19,73744.8,5.43,4.49,5.07,0,*74
1501254520.06,24421,20.19,73752.8,5.45,4.63,5.27,0,*79
1501254521.26,24422,20.19,73754.5,5.49,4.23,4.93,0,*7C
1501254522.5,24423,20.19,73756.0,5.49,4.31,5.01,0,*74
1501254523.7,24424,20.19,73762.8,5.45,3.85,4.63,0,*72
1501254524.9,24425,20.19,73760.0,5.49,3.63,4.67,0,*73
1501254526.1,24426,20.19,73758.3,5.49,3.93,4.93,0,*74
1501254527.33,24427,20.19,73760.3,5.51,3.97,5.19,0,*7B